Location: Newark
(43.0000°N, 1.6781°W)
Time: 05:56:42
(UTC+00:00)

CAS-4B - Pass Details

Date: 16 December 2022
Orbit: 515 x 531 km, 43.0° (Epoch: 27 January)

Event Time Altitude Azimuth Distance (km) Brightness Sun altitude
Exits shadow 04:14:53 14° 95° (E) 1,544 ? -35.0°
Drops below altitude 10° 04:15:27 10° 95° (E) 1,768 ? -34.9°
Sets 04:17:41 0° 95° (E) 2,660 ? -34.4°
